Location: Enikep?du
(16.5133°N, 80.7066°E)
Time: 01:09:55
(UTC+00:00)

Cosmos 2322 Rocket - Pass Details

Date: 20 January 2020
Orbit: 831 x 852 km, 71.0° (Epoch: 19 February)

Event Time Altitude Azimuth Distance (km) Brightness Sun altitude
Rises 00:20:13 0° 193° (SSW) 3,369 5.4 -11.9°
Reaches altitude 10° 00:22:38 10° 191° (S) 2,439 4.7 -11.4°
Maximum altitude 00:28:14 77° 105° (ESE) 860 2.4 -10.1°
Drops below altitude 10° 00:33:52 10° 20° (NNE) 2,457 4.7 -8.8°
Sets 00:36:19 0° 19° (NNE) 3,396 5.4 -8.3°
